"Pseudo-MPEC" for P2165tH

Created 2020 Sep 17 0:07:51 UT using Find_Orb

Click here for an explanation of pseudo-MPECs

 
 Astrometry: 
     P2165tH  C2020 09 14=Hy!Ppr6APV0(tAK3Nsd?,^RdKBK`lh.Ei^aO7k+Gt%iy_M3AG?%F52
     P2165tH  C2020 09 14y^+u/EgxT2Al(]A?Ng_0!E2)X-*Qg]5LXyqyQKerrn/m3^tT:YdpF52
     P2165tH  C2020 09 14$QS68]h%@WQRVIQ-NpZFdC:R[h,vGqFyp:\^@VpAstrometryK.NF52
     P2165tH  C2020 09 15.32283 02 50 06.84 -11 01 14.4    ~9F8b 20.4 GVNEOCPI52
     P2165tH  C2020 09 15.32874 02 50 07.07 -11 01 17.2    ~9F8b 20.9 GVNEOCPI52
     P2165tH  C2020 09 15.33464 02 50 07.32 -11 01 18.3    ~9F8b 20.8 GVNEOCPI52
     P2165tH  C2020 09 15.34054 02 50 07.49 -11 01 20.4    ~9F8b       VNEOCPI52
     P2165tH  C2020 09 159h#/H#tEqL'redacted;92#a]#A_7^Pt:yHNan+ppbD4JCM]4@#/F51
     P2165tH  C2020 09 15.48521 02 50 12.58 -11 02 06.8    ~9FCM 20.7 GVNEOCPG96
     P2165tH  C2020 09 15Z%!Zc+.W+-Ye5tZ@clickDP]ilq9iDPi3qherelBQKweh\MEg4X-F51
     P2165tH  C2020 09 15.49131 02 50 12.79 -11 02 08.3    ~9FCM 20.8 GVNEOCPG96
     P2165tH  C2020 09 15.49740 02 50 12.99 -11 02 10.2    ~9FCM 21.3 GVNEOCPG96
     P2165tH  C2020 09 15.50349 02 50 13.19 -11 02 12.1    ~9FCM 21.2 GVNEOCPG96
     P2165tH  C2020 09 15JRgDwq'@xY-CdQV[wRfI*+7fX7TFIap(oSyvsqO,%Lp0(+-4KVVHF51
     P2165tH ^C2020 09 15.57207402 50 16.005-11 02 32.27   ~9FI7 20.69GVNEOCP568
     P2165tH ^C2020 09 15.57302802 50 16.037-11 02 32.56   ~9FI7 20.73GVNEOCP568
     P2165tH ^C2020 09 15.57397302 50 16.070-11 02 32.85   ~9FI7 20.73GVNEOCP568
     P2165tH  C2020 09 16+h995bT_6.qi_ja4Q@`GPBS]0$nO5p4W/MlK[,jqn;`S`GA7g[8qF51
     P2165tH  C2020 09 16#kUhJ#=9s+p\X=-m#QdqGJK-LFDm(\e+(ts,wjyJOo,afmTiy;FCF51
     P2165tH  C2020 09 16@SIfQng'TIUfor'U,LTV!$cj0=4c6O/Yo([Gx*4explanationZ^F51

Station data:
(568) Mauna Kea  (N19.826116 W155.472200)  US/Hawaii.
(F51) Pan-STARRS 1, Haleakala  (N20.707235 W156.255910)  US/Hawaii.
   Observers N. Primak, A. Schultz, S. Watters, J. Thiel, T. Goggia. Measurer
   PS1 Science Consortium. 1.8-m Ritchey-Chrétien + CCD.
(F52) Pan-STARRS 2, Haleakala  (N20.707384 W156.255910)  US/Hawaii. 1.8-m
   Ritchey-Chrétien + CCD.
(G96) Mt. Lemmon Survey  (N32.442754 W110.788720)  US/Arizona.  Observers T.
   A. Pruyne, B. M. Africano, E. J. Christensen, G. A. Farneth, D. C. Fuls,
   A. R. Gibbs, A. D. Grauer, H. Gröller, J. A. Johnson, R. A. Kowalski, S.
   M. Larson, G. J. Leonard, D. Rankin, R. L. Seaman, F. C. Shelly. 1.5-m
   reflector + 10K CCD.
(I52) Steward Observatory, Mt. Lemmon Station  (N32.442547 W110.788920)
   US/Arizona.  Observers T. A. Pruyne, B. M. Africano, E. J. Christensen, G.
   A. Farneth, D. C. Fuls, A. R. Gibbs, A. D. Grauer, H. Gröller, J. A.
   Johnson, R. A. Kowalski, S. M. Larson, G. J. Leonard, D. Rankin, R. L.
   Seaman, F. C. Shelly. 1.0-m reflector + CCD.

Orbital elements:  P2165tH
   Perihelion 2020 Oct 26.684740 +/- 14.7 TT = 16:26:01 (JD 2459149.184740)
Epoch 2020 Sep 16.0 TT = JDT 2459108.5   Earth MOID: 0.7582   AutoNEOCP
M 351.43978817 +/- 4.6              (J2000 ecliptic)
n   0.21040350 +/- 0.0247           Peri.  299.88830 +/- 10
a   2.79963066 +/- 0.219            Node    93.29503 +/- 2.9
e   0.3903544 +/- 0.0292            Incl.   13.43659 +/- 0.10
P   4.68                   H 19.1   G  0.15   U 10.3  
q 1.70678225 +/- 0.046    Q 3.89247907 +/- 0.343
From 20 observations 2020 Sept. 14-16; mean residual 0".21
Residuals in arcseconds: 
200914 F52  .05+  .13-    200915 F51  .26+  .06-    200915 568  .15+  .03-    
200914 F52  .03+  .14-    200915 G96  .16+  .32-    200915 568  .14+  .02-    
200914 F52  .10-  .03-    200915 F51  .24+  .05-    200915 568  .15+  .02-    
200915 I52  .58-  .52+    200915 G96  .13+  .09+    200916 F51  .01+  .09-    
200915 I52  .32-  .38-    200915 G96  .04-  .09+    200916 F51  .09-  .03-    
200915 I52  .26+  .42+    200915 G96  .22-  .09+    200916 F51  .14-  .07-    
200915 I52  .34-  .22+    200915 F51  .23+  .03-    

Ephemerides (geocentric):
Date (UTC) HH   RA              Dec         delta   r     elong  mag " sig PA
---- -- -- --  -------------   -----------  ------ ------ -----  --- ---- ---
2020 09 17 00  02 51 07.889   -11 09 57.26  .89955 1.7375 131.5 21.2 .152  53
2020 09 17 01  02 51 09.334   -11 10 10.38  .89929 1.7374 131.6 21.2 .168  50
2020 09 17 02  02 51 10.775   -11 10 23.49  .89903 1.7374 131.6 21.2 .185  47
2020 09 17 03  02 51 12.212   -11 10 36.60  .89877 1.7373 131.6 21.2 .203  46
2020 09 17 04  02 51 13.645   -11 10 49.71  .89852 1.7372 131.7 21.2 .222  44
2020 09 17 05  02 51 15.073   -11 11 02.82  .89826 1.7372 131.7 21.2 .241  42
2020 09 17 06  02 51 16.499   -11 11 15.93  .89800 1.7371 131.7 21.2 .262  41
2020 09 17 07  02 51 17.920   -11 11 29.03  .89775 1.7371 131.7 21.2 .282  40
2020 09 17 08  02 51 19.337   -11 11 42.13  .89749 1.7370 131.8 21.2 .304  39
2020 09 17 09  02 51 20.750   -11 11 55.24  .89723 1.7369 131.8 21.2 .326  39
2020 09 17 10  02 51 22.159   -11 12 08.34  .89697 1.7369 131.8 21.2 .349  38
2020 09 17 11  02 51 23.565   -11 12 21.43  .89672 1.7368 131.8 21.2 .372  37
2020 09 17 12  02 51 24.966   -11 12 34.53  .89646 1.7367 131.9 21.2 .396  37
2020 09 17 13  02 51 26.364   -11 12 47.62  .89621 1.7367 131.9 21.2 .420  36
2020 09 17 14  02 51 27.757   -11 13 00.72  .89595 1.7366 131.9 21.2 .446  36
2020 09 17 15  02 51 29.147   -11 13 13.81  .89570 1.7366 131.9 21.2 .471  35
2020 09 17 16  02 51 30.533   -11 13 26.89  .89544 1.7365 132.0 21.2 .497  35
2020 09 17 17  02 51 31.915   -11 13 39.98  .89518 1.7364 132.0 21.2 .524  35
2020 09 17 18  02 51 33.292   -11 13 53.06  .89493 1.7364 132.0 21.2 .552  35
2020 09 17 19  02 51 34.666   -11 14 06.15  .89468 1.7363 132.1 21.2 .580  34
2020 09 17 20  02 51 36.036   -11 14 19.23  .89442 1.7362 132.1 21.2 .608  34
2020 09 17 21  02 51 37.402   -11 14 32.30  .89417 1.7362 132.1 21.2 .638  34
2020 09 17 22  02 51 38.764   -11 14 45.38  .89391 1.7361 132.1 21.2 .667  34
2020 09 17 23  02 51 40.122   -11 14 58.45  .89366 1.7361 132.2 21.2 .698  34
2020 09 18 00  02 51 41.476   -11 15 11.52  .89340 1.7360 132.2 21.2 .729  34
2020 09 18 01  02 51 42.826   -11 15 24.59  .89315 1.7359 132.2 21.2 .760  33
2020 09 18 02  02 51 44.173   -11 15 37.65  .89290 1.7359 132.2 21.2 .792  33
2020 09 18 03  02 51 45.515   -11 15 50.71  .89264 1.7358 132.3 21.2 .825  33
2020 09 18 04  02 51 46.853   -11 16 03.77  .89239 1.7357 132.3 21.2 .858  33
2020 09 18 05  02 51 48.187   -11 16 16.83  .89214 1.7357 132.3 21.2 .892  33
2020 09 18 06  02 51 49.518   -11 16 29.88  .89189 1.7356 132.3 21.2 .927  33
2020 09 18 07  02 51 50.844   -11 16 42.93  .89163 1.7356 132.4 21.2 .962  33
2020 09 18 08  02 51 52.167   -11 16 55.98  .89138 1.7355 132.4 21.2 1.00  33
2020 09 18 09  02 51 53.485   -11 17 09.03  .89113 1.7354 132.4 21.2 1.03  33
2020 09 18 10  02 51 54.800   -11 17 22.07  .89088 1.7354 132.5 21.2 1.07  33
2020 09 18 11  02 51 56.110   -11 17 35.11  .89063 1.7353 132.5 21.2 1.11  33
2020 09 18 12  02 51 57.417   -11 17 48.15  .89038 1.7353 132.5 21.2 1.15  33
2020 09 18 13  02 51 58.719   -11 18 01.18  .89012 1.7352 132.5 21.2 1.18  33
2020 09 18 14  02 52 00.018   -11 18 14.21  .88987 1.7351 132.6 21.2 1.22  33
2020 09 18 15  02 52 01.313   -11 18 27.24  .88962 1.7351 132.6 21.2 1.26  33
2020 09 18 16  02 52 02.603   -11 18 40.26  .88937 1.7350 132.6 21.2 1.30  33
2020 09 18 17  02 52 03.890   -11 18 53.28  .88912 1.7349 132.6 21.2 1.34  33
2020 09 18 18  02 52 05.173   -11 19 06.30  .88887 1.7349 132.7 21.2 1.39  33
2020 09 18 19  02 52 06.451   -11 19 19.31  .88862 1.7348 132.7 21.2 1.43  33
2020 09 18 20  02 52 07.726   -11 19 32.32  .88837 1.7348 132.7 21.2 1.47  33
2020 09 18 21  02 52 08.997   -11 19 45.33  .88812 1.7347 132.7 21.2 1.51  33
2020 09 18 22  02 52 10.264   -11 19 58.33  .88787 1.7346 132.8 21.2 1.56  33
2020 09 18 23  02 52 11.526   -11 20 11.33  .88763 1.7346 132.8 21.2 1.60  33